ASA787 KDEN-KSEA

Flight info

Callsign ASA787
Flight time 2h 32m
Altitude 36000
Route DDRTH1 DDRTH IDA/N0458F380 PDT CHINS5
Aircraft B738/M-VGDW/C

Departure

Time 2026-05-07 20:40
Airport Denver International Airport (KDEN)

Arrival

Time 2026-05-07 23:13
Airport Seattle–Tacoma International Airport (KSEA)
Time Latitude Longitude Altitude Speed Heading
2026-05-07 20:24 39.85447 -104.67117 5385 ft 0 kts 166°
2026-05-07 20:29 39.85463 -104.67121 5383 ft 4 kts 187°
2026-05-07 20:29 39.85487 -104.67113 5381 ft 3 kts 185°
2026-05-07 20:30 39.85509 -104.67106 5385 ft 4 kts 230°
2026-05-07 20:30 39.85518 -104.67076 5379 ft 4 kts 266°
2026-05-07 20:30 39.85519 -104.67057 5379 ft 1 kts 271°
2026-05-07 20:30 39.85519 -104.67055 5379 ft 0 kts 271°
2026-05-07 20:33 39.85519 -104.67075 5379 ft 5 kts 271°
2026-05-07 20:34 39.85520 -104.67143 5381 ft 10 kts 271°
2026-05-07 20:34 39.85521 -104.67242 5385 ft 11 kts 270°
2026-05-07 20:34 39.85522 -104.67342 5385 ft 11 kts 270°
2026-05-07 20:34 39.85527 -104.67438 5385 ft 11 kts 288°
2026-05-07 20:35 39.85557 -104.67524 5385 ft 11 kts 294°
2026-05-07 20:35 39.85588 -104.67632 5385 ft 16 kts 280°
2026-05-07 20:35 39.85594 -104.67794 5385 ft 19 kts 270°
2026-05-07 20:35 39.85595 -104.67960 5385 ft 18 kts 270°
2026-05-07 20:36 39.85596 -104.68119 5385 ft 17 kts 272°
2026-05-07 20:36 39.85597 -104.68254 5384 ft 10 kts 270°
2026-05-07 20:36 39.85600 -104.68355 5375 ft 10 kts 278°
2026-05-07 20:36 39.85670 -104.68400 5369 ft 13 kts
2026-05-07 20:37 39.85763 -104.68399 5368 ft 15 kts
2026-05-07 20:37 39.85890 -104.68398 5365 ft 20 kts
2026-05-07 20:37 39.86033 -104.68396 5365 ft 21 kts
2026-05-07 20:37 39.86177 -104.68393 5365 ft 20 kts
2026-05-07 20:38 39.86317 -104.68392 5364 ft 20 kts 360°
2026-05-07 20:38 39.86418 -104.68399 5364 ft 7 kts 329°
2026-05-07 20:38 39.86426 -104.68456 5363 ft 7 kts 271°
2026-05-07 20:38 39.86427 -104.68524 5365 ft 10 kts 271°
2026-05-07 20:39 39.86428 -104.68632 5366 ft 13 kts 270°
2026-05-07 20:39 39.86471 -104.68717 5366 ft 13 kts 349°
2026-05-07 20:39 39.86628 -104.68718 5365 ft 49 kts 360°
2026-05-07 20:39 39.87221 -104.68715 5357 ft 119 kts
2026-05-07 20:40 39.88240 -104.68704 5360 ft 173 kts 360°
2026-05-07 20:40 39.89563 -104.68651 5708 ft 194 kts 352°
2026-05-07 20:40 39.90880 -104.68682 6657 ft 187 kts 347°
2026-05-07 20:40 39.92183 -104.68945 7269 ft 195 kts 345°
2026-05-07 20:41 39.93601 -104.69178 7454 ft 216 kts 348°
2026-05-07 20:41 39.95179 -104.69330 7611 ft 240 kts 353°
2026-05-07 20:41 39.96898 -104.69376 8045 ft 248 kts 354°
2026-05-07 20:41 39.98658 -104.69379 8499 ft 263 kts 356°
2026-05-07 20:42 40.00583 -104.69354 8898 ft 280 kts 357°
2026-05-07 20:42 40.02554 -104.69314 9605 ft 285 kts 357°
2026-05-07 20:42 40.04489 -104.69576 10035 ft 277 kts 335°
2026-05-07 20:42 40.06315 -104.70587 10254 ft 298 kts 333°
2026-05-07 20:43 40.08291 -104.71691 10403 ft 320 kts 334°
2026-05-07 20:43 40.10431 -104.72834 10559 ft 343 kts 335°
2026-05-07 20:43 40.12711 -104.74002 10724 ft 362 kts 336°
2026-05-07 20:43 40.15094 -104.75208 11178 ft 371 kts 336°
2026-05-07 20:44 40.17516 -104.76433 11812 ft 374 kts 336°
2026-05-07 20:44 40.19933 -104.77660 12653 ft 372 kts 336°
2026-05-07 20:44 40.22349 -104.78891 13389 ft 374 kts 336°
2026-05-07 20:44 40.24750 -104.80121 14064 ft 376 kts 336°
2026-05-07 20:45 40.27230 -104.81393 14684 ft 380 kts 336°
2026-05-07 20:45 40.29670 -104.82646 15319 ft 384 kts 336°
2026-05-07 20:45 40.32198 -104.83945 15984 ft 386 kts 336°
2026-05-07 20:45 40.34713 -104.85235 16622 ft 390 kts 336°
2026-05-07 20:46 40.37216 -104.86519 17218 ft 393 kts 336°
2026-05-07 20:46 40.39768 -104.87829 17929 ft 394 kts 336°
2026-05-07 20:46 40.42323 -104.89140 18580 ft 395 kts 336°
2026-05-07 20:46 40.44891 -104.90460 18997 ft 398 kts 335°
2026-05-07 20:47 40.47487 -104.91796 19394 ft 402 kts 335°
2026-05-07 20:47 40.50106 -104.93146 19756 ft 406 kts 336°
2026-05-07 20:47 40.52737 -104.94505 20182 ft 408 kts 336°
2026-05-07 20:47 40.55391 -104.95873 20607 ft 410 kts 336°
2026-05-07 20:48 40.58054 -104.97247 21007 ft 412 kts 335°
2026-05-07 20:48 40.60733 -104.98630 21406 ft 415 kts 336°
2026-05-07 20:48 40.63431 -105.00025 21823 ft 418 kts 336°
2026-05-07 20:48 40.66144 -105.01430 22191 ft 420 kts 336°
2026-05-07 20:49 40.68870 -105.02843 22558 ft 422 kts 335°
2026-05-07 20:49 40.71615 -105.04266 22931 ft 424 kts 335°
2026-05-07 20:49 40.74360 -105.05707 23276 ft 426 kts 333°
2026-05-07 20:49 40.76879 -105.07717 23558 ft 424 kts 318°
2026-05-07 20:50 40.78901 -105.10534 23859 ft 423 kts 308°
2026-05-07 20:50 40.80723 -105.13589 24177 ft 424 kts 307°
2026-05-07 20:50 40.82530 -105.16672 24503 ft 425 kts 307°
2026-05-07 20:50 40.84335 -105.19757 24828 ft 425 kts 307°
2026-05-07 20:51 40.86152 -105.22847 25154 ft 426 kts 308°
2026-05-07 20:51 40.87979 -105.25937 25440 ft 427 kts 308°
2026-05-07 20:51 40.89811 -105.29024 25725 ft 427 kts 308°
2026-05-07 20:51 40.91650 -105.32117 25936 ft 430 kts 308°
2026-05-07 20:52 40.93506 -105.35233 26168 ft 431 kts 308°
2026-05-07 20:52 40.95381 -105.38333 26421 ft 432 kts 310°
2026-05-07 20:52 40.97294 -105.41409 26663 ft 433 kts 309°
2026-05-07 20:52 40.99149 -105.44548 26946 ft 433 kts 308°
2026-05-07 20:53 41.00984 -105.47696 27309 ft 430 kts 308°
2026-05-07 20:53 41.02796 -105.50805 27948 ft 422 kts 309°
2026-05-07 20:53 41.04573 -105.53841 28717 ft 412 kts 309°
2026-05-07 20:53 41.06294 -105.56771 29459 ft 404 kts 309°
2026-05-07 20:54 41.08007 -105.59677 30114 ft 397 kts 309°
2026-05-07 20:54 41.09702 -105.62551 30537 ft 395 kts 309°
2026-05-07 20:54 41.11394 -105.65418 30812 ft 396 kts 309°
2026-05-07 20:54 41.13091 -105.68296 31114 ft 396 kts 309°
2026-05-07 20:55 41.14778 -105.71160 31561 ft 392 kts 309°
2026-05-07 20:55 41.16448 -105.73998 32011 ft 388 kts 309°
2026-05-07 20:55 41.18105 -105.76817 32389 ft 387 kts 309°
2026-05-07 20:55 41.19759 -105.79632 32722 ft 386 kts 309°
2026-05-07 20:56 41.21404 -105.82436 33075 ft 384 kts 309°
2026-05-07 20:56 41.23041 -105.85229 33448 ft 382 kts 309°
2026-05-07 20:56 41.24668 -105.88007 33829 ft 380 kts 309°
2026-05-07 20:56 41.26285 -105.90771 34169 ft 378 kts 309°
2026-05-07 20:57 41.27900 -105.93534 34398 ft 378 kts 309°
2026-05-07 20:57 41.29516 -105.96299 34501 ft 381 kts 309°
2026-05-07 20:57 41.31145 -105.99091 34681 ft 382 kts 309°
2026-05-07 20:57 41.32774 -106.01885 34855 ft 383 kts 309°
2026-05-07 20:58 41.34403 -106.04683 35080 ft 383 kts 309°
2026-05-07 20:58 41.36034 -106.07486 35352 ft 382 kts 309°
2026-05-07 20:58 41.37662 -106.10287 35571 ft 383 kts 309°
2026-05-07 20:58 41.39292 -106.13092 35763 ft 383 kts 309°
2026-05-07 20:59 41.40923 -106.15905 35908 ft 384 kts 309°
2026-05-07 20:59 41.44230 -106.21608 35955 ft 393 kts 309°
2026-05-07 21:00 41.46854 -106.26549 35950 ft 394 kts 302°
2026-05-07 21:00 41.49398 -106.33029 35952 ft 395 kts 300°
2026-05-07 21:01 41.51854 -106.39559 35932 ft 392 kts 300°
2026-05-07 21:01 41.54322 -106.46029 35934 ft 390 kts 300°
2026-05-07 21:02 41.57202 -106.53491 35933 ft 388 kts 300°
2026-05-07 21:02 41.59273 -106.58843 35917 ft 386 kts 300°
2026-05-07 21:03 41.61729 -106.65197 35924 ft 384 kts 300°
2026-05-07 21:03 41.64164 -106.71506 35890 ft 384 kts 300°
2026-05-07 21:04 41.66624 -106.77896 35899 ft 384 kts 300°
2026-05-07 21:04 41.69048 -106.84205 35907 ft 384 kts 300°
2026-05-07 21:05 41.71492 -106.90580 35972 ft 385 kts 300°
2026-05-07 21:05 41.73932 -106.96961 36001 ft 386 kts 300°
2026-05-07 21:06 41.76381 -107.03378 36036 ft 387 kts 300°
2026-05-07 21:06 41.78828 -107.09807 36050 ft 387 kts 300°
2026-05-07 21:07 41.81271 -107.16238 36050 ft 387 kts 300°
2026-05-07 21:07 41.83711 -107.22677 36058 ft 387 kts 300°
2026-05-07 21:08 41.86146 -107.29114 36056 ft 387 kts 300°
2026-05-07 21:08 41.88575 -107.35563 36017 ft 387 kts 300°
2026-05-07 21:09 41.91004 -107.42014 35975 ft 387 kts 300°
2026-05-07 21:09 41.93432 -107.48470 35950 ft 387 kts 300°
2026-05-07 21:10 41.95849 -107.54918 35913 ft 386 kts 300°
2026-05-07 21:10 41.98259 -107.61362 35884 ft 385 kts 299°
2026-05-07 21:11 42.00659 -107.67793 35879 ft 385 kts 299°
2026-05-07 21:11 42.04231 -107.77392 35890 ft 383 kts 299°
2026-05-07 21:12 42.06614 -107.83817 35881 ft 383 kts 299°
2026-05-07 21:12 42.08989 -107.90231 35880 ft 383 kts 299°
2026-05-07 21:13 42.11362 -107.96657 35883 ft 383 kts 299°
2026-05-07 21:13 42.13730 -108.03083 35880 ft 383 kts 299°
2026-05-07 21:14 42.16097 -108.09520 35883 ft 383 kts 299°
2026-05-07 21:14 42.18462 -108.15964 35897 ft 384 kts 299°
2026-05-07 21:15 42.20826 -108.22425 35881 ft 384 kts 299°
2026-05-07 21:15 42.23187 -108.28889 35886 ft 384 kts 299°
2026-05-07 21:16 42.25547 -108.35367 35881 ft 385 kts 299°
2026-05-07 21:16 42.27887 -108.41803 35878 ft 384 kts 298°
2026-05-07 21:17 42.30236 -108.48281 35882 ft 384 kts 298°
2026-05-07 21:17 42.32583 -108.54767 35894 ft 384 kts 298°
2026-05-07 21:18 42.34925 -108.61254 35893 ft 384 kts 298°
2026-05-07 21:18 42.37266 -108.67753 35886 ft 384 kts 298°
2026-05-07 21:19 42.39599 -108.74246 35900 ft 384 kts 298°
2026-05-07 21:19 42.41929 -108.80744 35896 ft 383 kts 298°
2026-05-07 21:20 42.44248 -108.87227 35921 ft 382 kts 298°
2026-05-07 21:20 42.46560 -108.93707 35926 ft 382 kts 298°
2026-05-07 21:21 42.48872 -109.00198 35927 ft 382 kts 298°
2026-05-07 21:21 42.51177 -109.06688 35925 ft 382 kts 298°
2026-05-07 21:22 42.53480 -109.13187 35919 ft 382 kts 298°
2026-05-07 21:22 42.55759 -109.19633 35932 ft 382 kts 298°
2026-05-07 21:23 42.58048 -109.26121 35957 ft 381 kts 297°
2026-05-07 21:23 42.60335 -109.32619 35942 ft 381 kts 297°
2026-05-07 21:24 42.62617 -109.39119 35949 ft 381 kts 297°
2026-05-07 21:24 42.64893 -109.45617 35940 ft 381 kts 297°
2026-05-07 21:25 42.67160 -109.52105 35932 ft 380 kts 297°
2026-05-07 21:25 42.69424 -109.58600 35945 ft 380 kts 297°
2026-05-07 21:26 42.71684 -109.65096 35959 ft 381 kts 297°
2026-05-07 21:26 42.73945 -109.71610 36102 ft 381 kts 297°
2026-05-07 21:27 42.76204 -109.78139 36102 ft 381 kts 297°
2026-05-07 21:27 42.78460 -109.84670 36095 ft 381 kts 297°
2026-05-07 21:28 42.80711 -109.91204 36103 ft 381 kts 297°
2026-05-07 21:28 42.82962 -109.97754 36081 ft 382 kts 297°
2026-05-07 21:29 42.85217 -110.04327 36061 ft 383 kts 297°
2026-05-07 21:29 42.87471 -110.10918 36014 ft 384 kts 297°
2026-05-07 21:30 42.89726 -110.17524 35933 ft 384 kts 297°
2026-05-07 21:30 42.91975 -110.24134 35944 ft 384 kts 297°
2026-05-07 21:31 42.94207 -110.30705 35946 ft 385 kts 297°
2026-05-07 21:31 42.96451 -110.37328 35954 ft 385 kts 297°
2026-05-07 21:32 42.98693 -110.43962 35959 ft 385 kts 297°
2026-05-07 21:32 43.00929 -110.50600 35963 ft 385 kts 297°
2026-05-07 21:33 43.03205 -110.57226 35945 ft 385 kts 297°
2026-05-07 21:33 43.05425 -110.63894 35955 ft 385 kts 297°
2026-05-07 21:34 43.07638 -110.70565 35951 ft 385 kts 297°
2026-05-07 21:34 43.09856 -110.77230 35964 ft 385 kts 297°
2026-05-07 21:35 43.12067 -110.83888 35964 ft 384 kts 297°
2026-05-07 21:35 43.14278 -110.90539 35931 ft 383 kts 297°
2026-05-07 21:36 43.16443 -110.97224 35932 ft 384 kts 298°
2026-05-07 21:36 43.18720 -111.03840 35944 ft 383 kts 297°
2026-05-07 21:37 43.20899 -111.10491 35962 ft 382 kts 297°
2026-05-07 21:37 43.23066 -111.17128 35942 ft 381 kts 297°
2026-05-07 21:38 43.25214 -111.23703 35943 ft 381 kts 297°
2026-05-07 21:38 43.27384 -111.30328 35937 ft 380 kts 297°
2026-05-07 21:39 43.29540 -111.36964 35901 ft 381 kts 297°
2026-05-07 21:39 43.31700 -111.43585 35927 ft 380 kts 297°
2026-05-07 21:40 43.33863 -111.50219 35932 ft 380 kts 297°
2026-05-07 21:40 43.36021 -111.56856 35933 ft 380 kts 297°
2026-05-07 21:41 43.38168 -111.63498 35946 ft 381 kts 297°
2026-05-07 21:41 43.40312 -111.70164 35961 ft 381 kts 297°
2026-05-07 21:42 43.42458 -111.76840 35971 ft 382 kts 297°
2026-05-07 21:42 43.44610 -111.83530 35992 ft 383 kts 297°
2026-05-07 21:43 43.46754 -111.90243 36000 ft 384 kts 297°
2026-05-07 21:43 43.48889 -111.96934 36014 ft 384 kts 297°
2026-05-07 21:44 43.51034 -112.03671 36019 ft 384 kts 297°
2026-05-07 21:44 43.53240 -112.10367 36020 ft 383 kts 299°
2026-05-07 21:45 43.55619 -112.16940 36021 ft 383 kts 299°
2026-05-07 21:45 43.58011 -112.23509 36028 ft 385 kts 299°
2026-05-07 21:46 43.59208 -112.26823 36208 ft 386 kts 299°
2026-05-07 21:46 43.60395 -112.30128 36449 ft 384 kts 299°
2026-05-07 21:46 43.61575 -112.33427 36810 ft 382 kts 299°
2026-05-07 21:46 43.62744 -112.36704 37137 ft 380 kts 299°
2026-05-07 21:47 43.63907 -112.39973 37406 ft 380 kts 299°
2026-05-07 21:47 43.65070 -112.43246 37594 ft 380 kts 299°
2026-05-07 21:47 43.66230 -112.46515 37961 ft 377 kts 299°
2026-05-07 21:47 43.67377 -112.49755 38301 ft 375 kts 299°
2026-05-07 21:48 43.68523 -112.52991 38516 ft 376 kts 299°
2026-05-07 21:48 43.69673 -112.56243 38678 ft 377 kts 300°
2026-05-07 21:48 43.70822 -112.59497 38842 ft 377 kts 300°
2026-05-07 21:48 43.71957 -112.62715 38993 ft 378 kts 299°
2026-05-07 21:49 43.73123 -112.66023 39140 ft 378 kts 299°
2026-05-07 21:49 43.74277 -112.69303 39282 ft 379 kts 299°
2026-05-07 21:49 43.75415 -112.72540 39430 ft 380 kts 299°
2026-05-07 21:49 43.76569 -112.75827 39575 ft 380 kts 299°
2026-05-07 21:50 43.77723 -112.79120 39713 ft 381 kts 299°
2026-05-07 21:50 43.78877 -112.82414 39827 ft 381 kts 299°
2026-05-07 21:50 43.81199 -112.89056 39848 ft 384 kts 298°
2026-05-07 21:51 43.83518 -112.95711 39852 ft 383 kts 299°
2026-05-07 21:51 43.85823 -113.02340 39844 ft 381 kts 299°
2026-05-07 21:52 43.88115 -113.08945 39851 ft 380 kts 299°
2026-05-07 21:52 43.90394 -113.15529 39851 ft 378 kts 299°
2026-05-07 21:53 43.92664 -113.22103 39867 ft 377 kts 299°
2026-05-07 21:53 43.94543 -113.27560 39887 ft 377 kts 299°
2026-05-07 21:54 43.96800 -113.34125 39867 ft 378 kts 298°
2026-05-07 21:54 43.99069 -113.40716 39871 ft 379 kts 299°
2026-05-07 21:55 44.01334 -113.47346 39858 ft 380 kts 299°
2026-05-07 21:55 44.03596 -113.53987 39877 ft 381 kts 298°
2026-05-07 21:56 44.05859 -113.60657 39850 ft 382 kts 298°
2026-05-07 21:56 44.08109 -113.67299 39864 ft 382 kts 300°
2026-05-07 21:57 44.10390 -113.73945 39892 ft 379 kts 298°
2026-05-07 21:57 44.12739 -113.80478 39864 ft 375 kts 301°
2026-05-07 21:58 44.14829 -113.87166 39857 ft 377 kts 297°
2026-05-07 21:58 44.17003 -113.93808 39858 ft 376 kts 299°
2026-05-07 21:59 44.19244 -114.00388 39863 ft 376 kts 299°
2026-05-07 21:59 44.21473 -114.06977 39846 ft 376 kts 298°
2026-05-07 22:00 44.23687 -114.13585 39852 ft 377 kts 298°
2026-05-07 22:00 44.25895 -114.20214 39844 ft 377 kts 299°
2026-05-07 22:01 44.28098 -114.26846 39875 ft 377 kts 298°
2026-05-07 22:01 44.30301 -114.33500 39912 ft 378 kts 299°
2026-05-07 22:02 44.32491 -114.40164 39873 ft 378 kts 298°
2026-05-07 22:02 44.34700 -114.46838 39855 ft 379 kts 298°
2026-05-07 22:03 44.36904 -114.53532 39881 ft 379 kts 298°
2026-05-07 22:03 44.39081 -114.60183 39890 ft 378 kts 298°
2026-05-07 22:04 44.41270 -114.66897 39851 ft 380 kts 298°
2026-05-07 22:04 44.43461 -114.73606 39846 ft 379 kts 298°
2026-05-07 22:05 44.45658 -114.80285 39875 ft 377 kts 298°
2026-05-07 22:05 44.47823 -114.86964 39898 ft 377 kts 297°
2026-05-07 22:06 44.49982 -114.93653 39885 ft 378 kts 298°
2026-05-07 22:06 44.52148 -115.00373 39891 ft 379 kts 299°
2026-05-07 22:07 44.54354 -115.07087 39898 ft 381 kts 298°
2026-05-07 22:07 44.56498 -115.13825 39895 ft 382 kts 298°
2026-05-07 22:08 44.58667 -115.20632 39933 ft 383 kts 298°
2026-05-07 22:08 44.60841 -115.27458 39940 ft 384 kts 298°
2026-05-07 22:09 44.63025 -115.34294 39909 ft 383 kts 298°
2026-05-07 22:09 44.65191 -115.41111 39931 ft 382 kts 298°
2026-05-07 22:10 44.67355 -115.47937 39967 ft 382 kts 298°
2026-05-07 22:10 44.69509 -115.54750 39967 ft 381 kts 297°
2026-05-07 22:11 44.71659 -115.61563 39952 ft 381 kts 297°
2026-05-07 22:11 44.73785 -115.68323 39990 ft 381 kts 297°
2026-05-07 22:12 44.75923 -115.75131 40014 ft 380 kts 297°
2026-05-07 22:12 44.78056 -115.81949 40031 ft 380 kts 297°
2026-05-07 22:13 44.80184 -115.88760 40052 ft 380 kts 297°
2026-05-07 22:13 44.82305 -115.95566 40060 ft 378 kts 296°
2026-05-07 22:14 44.84402 -116.02336 40082 ft 377 kts 297°
2026-05-07 22:14 44.86506 -116.09120 40088 ft 378 kts 297°
2026-05-07 22:15 44.88608 -116.15920 40085 ft 379 kts 297°
2026-05-07 22:15 44.90698 -116.22693 40094 ft 380 kts 297°
2026-05-07 22:16 44.92804 -116.29550 40010 ft 381 kts 297°
2026-05-07 22:16 44.94913 -116.36432 40007 ft 383 kts 297°
2026-05-07 22:17 44.97023 -116.43338 40000 ft 384 kts 297°
2026-05-07 22:17 44.99134 -116.50262 40003 ft 384 kts 297°
2026-05-07 22:18 45.02293 -116.60664 40003 ft 384 kts 296°
2026-05-07 22:19 45.04397 -116.67622 40015 ft 385 kts 296°
2026-05-07 22:19 45.06506 -116.74599 40009 ft 386 kts 296°
2026-05-07 22:20 45.08552 -116.81631 40018 ft 389 kts 293°
2026-05-07 22:20 45.10700 -116.88629 40002 ft 387 kts 298°
2026-05-07 22:21 45.12901 -116.95576 39991 ft 388 kts 296°
2026-05-07 22:21 45.14944 -117.02605 40025 ft 384 kts 296°
2026-05-07 22:22 45.16989 -117.09575 40031 ft 382 kts 296°
2026-05-07 22:22 45.18994 -117.16559 39996 ft 383 kts 296°
2026-05-07 22:23 45.21077 -117.23472 40105 ft 381 kts 296°
2026-05-07 22:23 45.23088 -117.30448 40052 ft 386 kts 296°
2026-05-07 22:24 45.25130 -117.37478 40074 ft 385 kts 296°
2026-05-07 22:24 45.27195 -117.44476 40075 ft 384 kts 296°
2026-05-07 22:25 45.29182 -117.51566 40063 ft 385 kts 295°
2026-05-07 22:25 45.31281 -117.58470 40072 ft 382 kts 296°
2026-05-07 22:26 45.33377 -117.65397 40042 ft 381 kts 296°
2026-05-07 22:26 45.35416 -117.72351 40040 ft 380 kts 295°
2026-05-07 22:27 45.37429 -117.79301 40042 ft 380 kts 295°
2026-05-07 22:27 45.39438 -117.86265 40041 ft 381 kts 295°
2026-05-07 22:28 45.41445 -117.93235 40047 ft 381 kts 295°
2026-05-07 22:28 45.43449 -118.00216 40045 ft 382 kts 295°
2026-05-07 22:29 45.45455 -118.07223 40041 ft 383 kts 295°
2026-05-07 22:29 45.47450 -118.14215 40035 ft 384 kts 295°
2026-05-07 22:30 45.49457 -118.21282 40045 ft 386 kts 295°
2026-05-07 22:30 45.51476 -118.28380 40054 ft 387 kts 295°
2026-05-07 22:31 45.53493 -118.35504 40048 ft 388 kts 295°
2026-05-07 22:31 45.55511 -118.42654 40040 ft 388 kts 294°
2026-05-07 22:32 45.57521 -118.49806 40054 ft 389 kts 294°
2026-05-07 22:32 45.59536 -118.56985 40042 ft 390 kts 294°
2026-05-07 22:33 45.61548 -118.64171 40048 ft 390 kts 294°
2026-05-07 22:33 45.63560 -118.71383 40035 ft 391 kts 294°
2026-05-07 22:34 45.65563 -118.78589 40037 ft 390 kts 294°
2026-05-07 22:34 45.67562 -118.85797 40035 ft 389 kts 294°
2026-05-07 22:35 45.69579 -118.92967 40034 ft 387 kts 298°
2026-05-07 22:35 45.71029 -118.96180 40022 ft 384 kts 310°
2026-05-07 22:35 45.72753 -118.99098 40008 ft 384 kts 310°
2026-05-07 22:36 45.76233 -119.04837 40007 ft 384 kts 310°
2026-05-07 22:36 45.79720 -119.10636 40011 ft 384 kts 310°
2026-05-07 22:37 45.83182 -119.16458 39979 ft 384 kts 310°
2026-05-07 22:37 45.86657 -119.22331 40013 ft 389 kts 310°
2026-05-07 22:38 45.90169 -119.28305 40014 ft 393 kts 309°
2026-05-07 22:38 45.93705 -119.34327 40016 ft 396 kts 309°
2026-05-07 22:39 45.97259 -119.40390 40004 ft 397 kts 309°
2026-05-07 22:39 46.00805 -119.46452 39999 ft 396 kts 309°
2026-05-07 22:40 46.04339 -119.52507 39993 ft 394 kts 309°
2026-05-07 22:40 46.07853 -119.58540 39992 ft 392 kts 309°
2026-05-07 22:41 46.11348 -119.64554 39993 ft 391 kts 309°
2026-05-07 22:41 46.14828 -119.70556 39988 ft 389 kts 309°
2026-05-07 22:42 46.18286 -119.76531 39992 ft 387 kts 309°
2026-05-07 22:42 46.21732 -119.82502 39977 ft 387 kts 309°
2026-05-07 22:43 46.25162 -119.88465 39983 ft 386 kts 309°
2026-05-07 22:43 46.28589 -119.94432 39979 ft 386 kts 309°
2026-05-07 22:44 46.32017 -120.00415 39987 ft 386 kts 309°
2026-05-07 22:44 46.35443 -120.06406 39980 ft 387 kts 308°
2026-05-07 22:45 46.38872 -120.12417 39979 ft 388 kts 308°
2026-05-07 22:45 46.42311 -120.18459 39989 ft 389 kts 308°
2026-05-07 22:46 46.45758 -120.24528 39991 ft 390 kts 308°
2026-05-07 22:46 46.49186 -120.30578 40005 ft 391 kts 308°
2026-05-07 22:47 46.52644 -120.36694 40004 ft 392 kts 308°
2026-05-07 22:47 46.54380 -120.39768 39751 ft 398 kts 308°
2026-05-07 22:47 46.56140 -120.42888 39313 ft 398 kts 308°
2026-05-07 22:47 46.57847 -120.46023 38837 ft 393 kts 305°
2026-05-07 22:48 46.59436 -120.49247 38271 ft 391 kts 304°
2026-05-07 22:48 46.60970 -120.52496 37684 ft 389 kts 303°
2026-05-07 22:48 46.62484 -120.55736 37109 ft 387 kts 303°
2026-05-07 22:48 46.63490 -120.57884 36727 ft 387 kts 303°
2026-05-07 22:49 46.65010 -120.61114 36129 ft 387 kts 303°
2026-05-07 22:49 46.66536 -120.64342 35496 ft 388 kts 303°
2026-05-07 22:49 46.68072 -120.67582 34845 ft 390 kts 303°
2026-05-07 22:49 46.69618 -120.70838 34192 ft 392 kts 303°
2026-05-07 22:50 46.71174 -120.74115 33435 ft 395 kts 303°
2026-05-07 22:50 46.72744 -120.77423 32695 ft 397 kts 303°
2026-05-07 22:50 46.74316 -120.80741 31946 ft 399 kts 304°
2026-05-07 22:50 46.75919 -120.84046 31212 ft 400 kts 303°
2026-05-07 22:51 46.77492 -120.87412 30468 ft 403 kts 303°
2026-05-07 22:51 46.79077 -120.90803 29559 ft 406 kts 303°
2026-05-07 22:51 46.80679 -120.94213 28667 ft 410 kts 303°
2026-05-07 22:51 46.82313 -120.97687 27669 ft 418 kts 303°
2026-05-07 22:52 46.83971 -121.01214 26772 ft 421 kts 303°
2026-05-07 22:52 46.85624 -121.04728 26074 ft 419 kts 303°
2026-05-07 22:52 46.87268 -121.08229 25442 ft 416 kts 303°
2026-05-07 22:52 46.88900 -121.11710 24814 ft 414 kts 303°
2026-05-07 22:53 46.90526 -121.15186 24170 ft 414 kts 303°
2026-05-07 22:53 46.92149 -121.18658 23547 ft 414 kts 303°
2026-05-07 22:53 46.93773 -121.22138 22797 ft 413 kts 303°
2026-05-07 22:53 46.95383 -121.25592 22154 ft 410 kts 303°
2026-05-07 22:54 46.96987 -121.29038 21516 ft 408 kts 303°
2026-05-07 22:54 46.98578 -121.32461 20901 ft 406 kts 303°
2026-05-07 22:54 47.00160 -121.35868 20287 ft 403 kts 303°
2026-05-07 22:54 47.01723 -121.39236 20019 ft 393 kts 303°
2026-05-07 22:55 47.03235 -121.42501 19812 ft 381 kts 303°
2026-05-07 22:55 47.04702 -121.45669 19662 ft 370 kts 303°
2026-05-07 22:55 47.06125 -121.48747 19508 ft 359 kts 303°
2026-05-07 22:55 47.07507 -121.51741 19334 ft 350 kts 303°
2026-05-07 22:56 47.08875 -121.54708 18849 ft 351 kts 303°
2026-05-07 22:56 47.10240 -121.57668 18478 ft 350 kts 303°
2026-05-07 22:56 47.11606 -121.60638 17981 ft 351 kts 302°
2026-05-07 22:56 47.12971 -121.63612 17435 ft 352 kts 302°
2026-05-07 22:57 47.14333 -121.66579 17006 ft 350 kts 303°
2026-05-07 22:57 47.15691 -121.69540 16594 ft 348 kts 303°
2026-05-07 22:57 47.17039 -121.72482 16177 ft 346 kts 303°
2026-05-07 22:57 47.18361 -121.75369 15770 ft 344 kts 302°
2026-05-07 22:58 47.19691 -121.78279 15368 ft 342 kts 302°
2026-05-07 22:58 47.21014 -121.81176 14993 ft 340 kts 303°
2026-05-07 22:58 47.22320 -121.84035 14752 ft 334 kts 303°
2026-05-07 22:58 47.23603 -121.86849 14497 ft 329 kts 303°
2026-05-07 22:59 47.24867 -121.89625 14246 ft 326 kts 303°
2026-05-07 22:59 47.26130 -121.92401 14003 ft 325 kts 303°
2026-05-07 22:59 47.27386 -121.95166 13731 ft 324 kts 303°
2026-05-07 22:59 47.28633 -121.97914 13460 ft 322 kts 303°
2026-05-07 23:00 47.29875 -122.00641 13206 ft 319 kts 303°
2026-05-07 23:00 47.31102 -122.03356 12960 ft 318 kts 302°
2026-05-07 23:00 47.32334 -122.06080 12725 ft 322 kts 302°
2026-05-07 23:00 47.33578 -122.08834 12484 ft 323 kts 303°
2026-05-07 23:01 47.34812 -122.11565 12231 ft 318 kts 302°
2026-05-07 23:01 47.36027 -122.14255 12041 ft 311 kts 303°
2026-05-07 23:01 47.37415 -122.16603 11963 ft 301 kts 325°
2026-05-07 23:01 47.39287 -122.17827 11978 ft 290 kts 344°
2026-05-07 23:02 47.41253 -122.18242 11869 ft 283 kts 354°
2026-05-07 23:02 47.43232 -122.18440 11477 ft 287 kts 356°
2026-05-07 23:02 47.45235 -122.18562 11164 ft 288 kts 357°
2026-05-07 23:02 47.47226 -122.18643 10825 ft 285 kts 358°
2026-05-07 23:03 47.49212 -122.18709 10417 ft 285 kts 359°
2026-05-07 23:03 47.51187 -122.18762 10038 ft 284 kts 359°
2026-05-07 23:03 47.53159 -122.18821 9651 ft 282 kts 358°
2026-05-07 23:03 47.55115 -122.18913 9226 ft 281 kts 358°
2026-05-07 23:04 47.57056 -122.19031 8792 ft 278 kts 356°
2026-05-07 23:04 47.58989 -122.19168 8374 ft 276 kts 357°
2026-05-07 23:04 47.60912 -122.19251 7856 ft 278 kts 359°
2026-05-07 23:04 47.62844 -122.19319 7425 ft 277 kts 358°
2026-05-07 23:05 47.64761 -122.19404 7024 ft 275 kts 358°
2026-05-07 23:05 47.66672 -122.19499 6594 ft 274 kts 358°
2026-05-07 23:05 47.68572 -122.19608 6184 ft 272 kts 357°
2026-05-07 23:05 47.70434 -122.19850 5823 ft 266 kts 345°
2026-05-07 23:06 47.72022 -122.21082 5455 ft 261 kts 316°
2026-05-07 23:06 47.73001 -122.23276 5072 ft 255 kts 287°
2026-05-07 23:06 47.73183 -122.25853 4691 ft 251 kts 268°
2026-05-07 23:06 47.73073 -122.28433 4335 ft 246 kts 264°
2026-05-07 23:07 47.72612 -122.30776 4210 ft 233 kts 235°
2026-05-07 23:07 47.71360 -122.32150 4131 ft 224 kts 195°
2026-05-07 23:07 47.69826 -122.32116 4074 ft 223 kts 171°
2026-05-07 23:07 47.68289 -122.31791 4032 ft 220 kts 175°
2026-05-07 23:08 47.66814 -122.31658 3982 ft 204 kts 179°
2026-05-07 23:08 47.65447 -122.31636 3978 ft 193 kts 181°
2026-05-07 23:08 47.64112 -122.31643 3908 ft 192 kts 181°
2026-05-07 23:08 47.62763 -122.31654 3672 ft 195 kts 181°
2026-05-07 23:09 47.61419 -122.31666 3424 ft 192 kts 181°
2026-05-07 23:09 47.60099 -122.31677 3159 ft 188 kts 181°
2026-05-07 23:09 47.58810 -122.31687 2907 ft 183 kts 181°
2026-05-07 23:09 47.57557 -122.31698 2665 ft 177 kts 181°
2026-05-07 23:10 47.56332 -122.31707 2429 ft 173 kts 181°
2026-05-07 23:10 47.55187 -122.31717 2214 ft 158 kts 181°
2026-05-07 23:10 47.54131 -122.31725 2025 ft 141 kts 181°
2026-05-07 23:10 47.53198 -122.31733 1814 ft 132 kts 181°
2026-05-07 23:11 47.52268 -122.31742 1648 ft 134 kts 181°
2026-05-07 23:11 47.51340 -122.31748 1470 ft 134 kts 181°
2026-05-07 23:11 47.50395 -122.31754 1275 ft 137 kts 181°
2026-05-07 23:11 47.49435 -122.31765 1086 ft 138 kts 181°
2026-05-07 23:12 47.48468 -122.31779 873 ft 139 kts 182°
2026-05-07 23:12 47.47509 -122.31781 687 ft 138 kts 183°
2026-05-07 23:12 47.46552 -122.31787 509 ft 136 kts 184°
2026-05-07 23:12 47.45646 -122.31796 408 ft 121 kts 183°
2026-05-07 23:13 47.44952 -122.31802 390 ft 78 kts 180°
2026-05-07 23:13 47.44565 -122.31802 380 ft 34 kts 178°
2026-05-07 23:13 47.44411 -122.31787 373 ft 21 kts 172°
2026-05-07 23:13 47.44266 -122.31716 371 ft 23 kts 155°
2026-05-07 23:14 47.44130 -122.31603 365 ft 22 kts 150°
2026-05-07 23:14 47.43998 -122.31494 369 ft 21 kts 150°
2026-05-07 23:14 47.43871 -122.31386 368 ft 20 kts 150°
2026-05-07 23:14 47.43809 -122.31243 370 ft 17 kts 94°
2026-05-07 23:15 47.43807 -122.31072 370 ft 16 kts 91°
2026-05-07 23:15 47.43807 -122.30908 373 ft 16 kts 90°
2026-05-07 23:15 47.43806 -122.30751 375 ft 15 kts 90°
2026-05-07 23:15 47.43832 -122.30644 378 ft 11 kts 22°
2026-05-07 23:16 47.43903 -122.30637 380 ft 10 kts
2026-05-07 23:16 47.43974 -122.30636 382 ft 10 kts
2026-05-07 23:16 47.44057 -122.30636 384 ft 14 kts
2026-05-07 23:16 47.44171 -122.30634 387 ft 18 kts
2026-05-07 23:17 47.44294 -122.30633 390 ft 18 kts
2026-05-07 23:17 47.44415 -122.30632 388 ft 18 kts
2026-05-07 23:17 47.44553 -122.30631 396 ft 21 kts
2026-05-07 23:17 47.44697 -122.30630 401 ft 20 kts 360°
2026-05-07 23:18 47.44801 -122.30597 401 ft 13 kts 61°
2026-05-07 23:18 47.44814 -122.30481 405 ft 11 kts 63°
2026-05-07 23:18 47.44857 -122.30415 406 ft 5 kts 43°
2026-05-07 23:18 47.44864 -122.30407 407 ft 0 kts 43°